RH
42 40 39 36 39 52 59 61 58 46 42 53 61 58 46 36 35 34 30 25 21 18 16 15 14 13 13 13 14 15 15 14 15 15 15 15 15 14 12 10 9 8 8 9 10 12 13 14 15 15 15 16 17 17 17 17 17 17 16 16 16 16 16 16 16 15 15 14 13 13 13 15 15 16 16 17 17 17 21 20 30 41 36 48 69 82 83 69
32 33 34 33 35 45 53 55 56 47 37 43 55 61 57 44 37 36 35 31 27 23 19 16 15 14 13 13 13 14 15 15 15 14 15 15 15 15 14 13 12 10 8 8 8 9 11 12 13 14 15 15 16 16 16 16 16 17 16 16 16 16 16 15 16 16 16 15 14 13 12 13 13 15 16 16 17 16 18 18 21 28 27 35 51 58 53 39
26 28 30 30 32 39 46 50 52 47 35 34 45 56 61 56 44 38 37 36 33 28 24 19 16 15 14 13 13 13 14 15 15 14 14 15 15 15 15 14 14 13 10 9 8 8 8 9 10 12 13 14 14 15 15 16 16 16 16 16 16 16 17 16 16 16 16 16 15 15 12 12 11 13 15 15 16 17 18 18 18 22 23 27 31 33 30 23
24 26 29 29 30 34 40 45 47 45 35 29 36 47 56 61 55 44 38 38 37 34 30 25 20 17 15 14 13 12 13 14 16 15 13 14 15 15 14 14 15 15 13 11 10 9 7 7 8 9 10 11 12 13 14 15 15 15 16 16 16 17 17 16 16 17 16 16 15 14 13 11 11 11 14 16 16 16 17 18 18 19 20 22 24 27 24 24
24 25 27 27 29 32 36 41 43 41 34 28 32 41 49 57 61 54 44 40 39 38 35 32 27 21 17 15 14 13 12 13 15 14 13 13 14 14 14 14 14 15 15 13 12 11 9 8 8 7 7 8 9 11 11 12 13 14 14 15 15 15 15 15 15 15 15 15 14 13 12 10 10 10 12 15 14 14 16 17 17 18 19 20 21 22 23 31
26 27 28 29 31 33 35 36 35 33 29 28 32 40 45 50 60 62 54 44 41 40 38 36 33 28 22 18 15 14 13 13 14 14 14 14 15 14 14 14 14 14 15 14 14 13 11 9 9 8 7 7 7 8 8 9 10 11 12 12 13 13 13 13 13 13 13 12 12 11 10 9 9 10 11 13 13 13 14 15 16 17 18 17 17 21 30 35
31 31 31 31 32 32 31 31 30 29 30 33 38 44 48 52 59 64 61 52 44 42 41 39 38 35 30 23 18 15 14 14 13 13 14 14 15 14 13 13 14 14 14 14 15 14 12 11 10 10 9 8 7 7 6 7 7 7 8 9 9 10 10 10 10 10 9 9 9 8 7 8 9 9 11 11 12 12 13 14 14 16 16 15 18 29 36 29
41 40 39 38 37 36 35 36 37 38 43 48 51 54 56 59 62 63 62 57 49 44 42 42 41 40 37 31 24 18 16 15 13 13 14 14 14 15 14 13 13 13 13 14 14 14 13 11 10 10 10 9 10 9 8 7 6 6 6 7 7 7 7 7 7 7 7 7 7 7 8 8 9 9 10 10 11 11 12 13 14 15 14 17 29 41 38 23
46 46 46 45 45 44 43 43 44 46 50 53 55 57 59 60 62 61 60 58 53 48 45 44 43 43 41 38 32 25 19 16 15 13 13 13 13 14 15 13 13 13 13 13 13 14 13 11 10 11 11 11 13 13 10 9 8 8 8 7 7 6 6 6 6 7 7 7 7 8 8 8 9 9 10 10 10 11 11 13 13 13 16 31 49 51 36 18
37 38 39 41 42 42 42 42 44 46 46 48 50 55 57 57 58 58 58 59 57 54 51 48 47 46 44 42 38 33 27 21 17 15 14 14 12 13 15 14 13 12 13 13 13 13 12 12 12 13 13 13 14 13 11 10 10 11 10 10 9 8 7 7 7 7 7 7 7 7 7 8 8 8 9 10 10 10 11 12 12 16 35 57 64 53 30 13
23 24 25 26 28 29 30 31 34 37 37 37 41 47 51 50 51 51 53 54 55 55 55 54 52 50 47 45 42 39 35 29 22 17 14 14 14 12 13 15 13 12 13 13 13 13 12 12 13 15 14 13 13 12 10 10 12 12 11 12 11 11 10 9 8 8 8 8 8 8 8 7 7 8 8 8 10 11 12 13 21 40 66 77 67 49 26 11
16 17 17 17 17 17 18 18 20 22 22 22 25 31 34 36 37 39 41 43 45 50 52 54 54 52 48 45 44 44 40 35 29 21 17 16 15 14 13 14 14 13 13 13 13 12 12 12 13 14 14 13 13 13 11 12 14 13 12 13 12 12 11 11 10 10 11 12 11 11 9 9 10 9 8 11 13 13 15 26 50 75 87 79 62 44 22 11
20 19 19 18 17 16 15 15 15 15 15 15 15 17 19 20 22 24 25 27 30 37 42 47 50 50 46 41 43 47 42 36 32 27 23 19 16 15 14 14 14 14 13 12 12 12 13 12 12 12 13 14 13 13 12 13 16 15 14 13 13 12 11 11 11 11 13 14 14 14 14 15 13 12 14 16 18 24 36 58 84 93 85 71 54 35 17 11
28 27 26 25 23 22 20 19 18 16 16 15 14 14 14 14 15 15 15 15 18 23 28 33 37 40 40 36 37 43 40 35 35 33 29 23 18 16 14 14 14 14 13 12 12 13 13 12 12 12 12 13 13 13 12 12 15 17 17 16 15 13 12 12 11 11 13 13 13 14 17 17 17 19 20 22 36 58 74 90 99 90 75 61 42 24 13 11
27 27 28 28 28 28 26 25 24 22 21 19 18 17 16 15 14 14 13 12 13 15 17 20 25 27 29 28 29 35 36 35 38 37 31 26 22 18 16 15 14 14 14 13 13 13 13 13 12 12 12 12 12 13 13 12 13 16 18 18 16 14 14 14 11 11 12 12 11 12 17 18 20 21 22 38 66 90 99 101 96 80 64 46 27 15 12 11
20 20 21 21 22 23 24 24 24 24 24 23 23 22 21 20 18 16 14 13 13 13 13 14 17 19 20 20 20 25 30 34 38 38 34 28 24 20 17 16 15 14 14 13 13 13 13 13 12 12 11 11 12 13 13 13 14 15 16 16 16 15 16 15 13 12 12 12 11 11 15 16 21 26 39 68 91 101 103 100 88 67 45 25 15 13 11 10
17 17 17 17 17 17 17 18 18 19 19 20 20 22 22 22 21 20 17 16 16 15 14 14 14 14 15 15 15 17 24 31 34 34 32 27 23 21 18 17 15 14 13 12 12 13 14 14 12 11 11 11 12 12 13 16 16 15 14 13 13 14 15 15 14 13 12 12 11 12 11 14 26 36 55 85 99 103 102 91 72 45 23 14 12 13 11 10
16 16 15 15 15 15 15 15 15 14 14 14 14 15 17 18 19 19 18 18 19 19 18 17 16 14 13 13 13 14 18 24 29 29 27 25 22 20 18 17 15 14 13 13 13 13 14 14 13 12 11 11 12 12 13 16 15 12 11 10 11 12 14 14 13 13 13 11 11 13 11 16 29 39 60 85 95 96 85 65 45 23 13 13 12 12 11 11
19 18 17 16 16 16 15 15 15 14 14 13 13 12 12 12 13 13 13 15 18 19 20 21 20 18 16 14 13 13 14 17 22 24 23 23 21 18 17 16 15 15 14 13 14 13 13 14 13 13 13 12 12 12 12 12 10 10 11 10 10 11 12 13 13 13 13 12 12 13 12 16 24 37 60 78 78 70 52 33 21 13 14 14 11 12 11 11
20 20 19 19 19 18 18 18 17 16 16 15 14 13 12 11 11 10 8 9 12 14 16 20 22 22 21 18 16 14 13 13 15 18 20 22 20 18 16 15 15 16 16 16 15 13 12 12 13 14 14 13 11 11 11 10 10 10 11 11 11 11 12 13 13 13 13 13 13 12 13 15 18 26 39 47 44 36 24 17 15 14 15 13 12 12 11 12
18 19 18 18 19 19 19 19 18 18 18 17 16 15 14 13 12 11 8 7 8 10 11 12 16 20 22 23 21 18 15 13 12 13 16 19 19 17 16 15 14 16 20 19 14 12 11 12 14 15 14 13 11 10 10 10 10 11 11 11 12 11 11 11 13 13 14 15 14 12 13 14 14 15 18 21 20 16 13 14 15 13 13 13 12 12 11 13
16 16 16 16 16 17 17 17 17 18 17 17 17 16 16 15 14 13 11 8 8 9 9 9 10 13 16 20 23 22 19 16 13 11 12 14 16 15 15 14 14 16 19 18 14 12 12 14 16 15 14 12 11 11 10 10 10 11 11 11 12 12 11 10 12 13 14 15 13 12 13 12 12 13 14 14 13 12 13 13 14 13 12 12 12 13 13 13
15 15 15 15 15 15 15 15 16 16 16 16 16 16 16 16 15 14 14 11 9 9 9 9 9 9 10 14 17 20 22 19 16 13 12 13 13 13 12 13 15 15 16 17 16 15 15 18 19 15 12 12 11 11 10 10 10 10 11 11 12 12 11 10 11 12 13 14 13 12 12 12 11 11 12 13 12 12 13 13 13 12 11 12 13 13 14 13
16 16 16 15 14 14 14 14 14 14 15 15 15 15 15 15 15 14 14 14 12 10 9 9 9 9 9 10 11 14 18 19 17 15 14 15 13 12 11 12 14 15 15 16 18 19 19 22 21 14 11 11 11 11 10 10 10 10 11 11 12 11 11 10 9 10 12 13 12 12 12 12 11 11 11 11 11 12 12 12 12 11 11 12 13 14 14 14
18 17 17 17 15 15 15 15 14 14 14 14 14 14 14 14 14 14 14 13 13 12 11 10 9 9 9 9 10 11 12 14 15 15 14 16 16 13 12 11 12 13 15 16 17 20 22 24 22 15 11 11 11 11 11 10 10 10 10 11 12 11 10 9 8 8 11 12 12 11 12 12 12 11 11 10 11 11 12 12 10 10 12 12 13 15 14 14
20 19 19 18 17 16 16 16 15 14 14 13 13 13 13 13 12 13 12 13 13 12 12 11 10 10 9 10 10 10 10 10 10 12 13 15 17 16 14 12 11 11 13 14 15 18 22 24 23 17 12 10 10 10 11 11 10 10 11 11 11 10 10 9 8 8 9 12 12 11 12 12 12 12 11 10 11 11 11 12 11 11 12 12 13 15 14 15
23 22 22 21 19 18 17 17 16 15 14 13 13 12 12 12 12 12 11 12 12 11 12 11 11 11 10 10 10 10 11 10 8 8 9 12 15 16 16 14 12 12 11 11 12 15 21 23 22 19 14 11 10 10 11 11 11 11 12 11 10 10 10 9 8 8 9 11 11 11 11 12 12 13 12 12 11 12 13 13 12 11 12 12 12 14 14 14
26 25 24 22 21 20 19 18 16 15 14 13 12 12 12 11 11 11 11 11 11 11 11 11 11 11 10 10 10 10 10 10 10 8 7 9 12 15 17 16 14 14 12 10 9 12 18 20 21 20 17 13 12 12 12 11 11 12 12 11 10 10 9 9 8 8 9 10 10 10 11 12 13 13 12 12 12 13 15 14 13 12 12 12 12 12 13 13
26 25 23 21 20 20 19 17 16 14 13 12 12 11 11 11 10 10 10 10 10 10 10 10 10 10 10 9 9 9 9 10 10 9 7 7 9 12 16 17 15 15 14 11 9 11 14 17 18 18 17 15 13 12 11 10 11 12 11 10 10 9 9 8 8 8 8 9 10 10 11 12 14 14 12 13 14 14 15 13 12 12 12 12 12 11 12 13
26 24 22 21 21 20 18 17 15 14 13 13 12 11 10 10 9 9 9 9 9 9 9 9 9 9 9 9 8 9 9 9 9 10 9 7 7 9 12 14 14 15 15 13 11 12 14 14 14 16 16 15 14 12 10 10 10 11 10 10 10 9 8 8 7 8 8 8 10 10 11 13 14 14 14 15 16 14 13 12 12 13 13 12 12 11 12 12
27 25 23 22 22 20 18 16 15 15 15 14 13 12 11 10 9 9 8 8 8 8 8 8 8 8 8 8 8 8 8 9 8 9 9 9 8 8 8 10 13 14 15 15 15 16 16 14 12 14 15 15 14 12 10 10 10 10 9 9 9 8 8 7 7 7 6 9 12 11 11 13 14 15 16 17 15 13 13 13 13 13 13 12 12 12 12 12
28 27 25 23 22 19 18 18 16 16 15 14 14 13 12 11 10 9 9 8 7 7 8 8 7 7 8 7 7 7 8 9 9 8 9 9 9 9 8 8 9 12 14 16 16 19 20 17 13 13 14 14 13 11 10 9 9 10 9 9 9 8 8 7 7 7 8 12 15 12 10 12 16 17 18 17 15 13 13 13 13 12 12 12 12 12 12 12
29 28 25 23 21 19 18 19 18 18 16 15 14 13 12 11 11 10 9 8 7 7 7 7 7 7 7 8 7 7 8 9 9 9 8 8 9 10 10 8 8 9 13 15 16 19 22 19 16 14 13 13 12 11 11 10 10 10 9 9 9 8 8 7 8 8 9 13 15 12 9 12 19 20 18 19 17 13 12 11 11 12 12 12 12 12 13 12
31 29 26 23 21 20 21 21 21 20 18 16 15 14 12 12 11 10 9 8 7 7 7 7 7 7 6 7 7 7 7 8 9 10 9 8 8 9 10 10 9 7 9 14 15 18 23 22 18 16 15 13 12 11 11 11 12 12 11 11 10 10 10 8 9 9 9 15 17 13 8 12 21 21 17 20 18 13 11 10 10 11 11 12 13 13 13 14
32 31 28 26 25 25 25 25 24 22 19 17 15 13 11 10 9 8 8 7 7 6 6 7 7 7 7 7 7 7 7 7 9 10 10 9 8 8 10 11 10 8 8 10 12 15 21 24 22 20 19 17 15 13 13 12 13 13 12 11 9 10 11 8 9 9 10 15 17 12 8 13 25 25 17 17 17 13 12 10 10 11 11 12 13 14 14 15
33 33 31 31 31 30 29 27 24 21 17 14 12 11 9 8 8 7 6 6 6 6 5 6 6 6 6 6 7 7 7 7 8 9 10 9 8 8 9 10 10 10 8 8 9 11 17 23 24 24 24 23 21 18 15 13 13 14 13 12 11 12 11 9 8 9 10 14 14 11 8 14 26 26 15 14 16 14 13 11 11 12 11 12 13 14 15 14
37 35 33 33 33 32 28 24 19 16 13 11 11 10 9 9 8 7 6 6 6 6 5 5 5 5 5 6 6 7 7 7 8 8 9 10 9 8 8 10 10 10 9 7 7 9 13 19 24 26 28 29 28 23 18 15 14 15 14 14 15 15 13 10 9 9 9 12 14 11 8 13 22 22 14 13 15 14 13 13 12 12 11 13 14 14 15 15
40 38 35 34 33 30 23 18 15 14 13 12 11 11 10 9 8 7 7 6 5 5 5 5 5 4 5 5 5 6 7 8 8 8 8 9 10 8 7 9 9 10 10 8 7 8 10 17 23 26 30 32 31 27 22 17 14 15 16 16 15 15 15 13 11 10 10 12 14 12 10 12 20 24 18 15 16 15 13 13 12 12 13 13 14 14 14 15
41 40 37 33 28 22 18 16 16 15 14 13 12 11 10 9 9 7 6 6 5 5 4 4 4 4 5 4 5 5 6 7 7 8 8 8 10 9 8 8 9 10 10 9 8 8 9 15 20 23 28 31 32 30 27 23 19 18 17 15 14 15 16 14 12 12 11 14 18 16 12 13 22 30 25 18 18 16 14 13 12 13 13 13 13 13 14 15
42 40 34 26 21 18 16 17 16 15 13 13 12 11 10 9 8 7 6 6 5 5 4 4 3 4 4 4 4 5 5 6 6 7 8 7 9 10 9 8 8 9 10 10 9 8 9 14 18 21 24 28 31 32 32 30 28 25 20 16 15 15 16 14 12 11 10 13 18 16 13 14 24 34 32 23 19 18 15 13 13 13 13 13 13 13 14 15
39 33 26 21 18 17 17 16 16 14 13 13 12 12 11 10 9 7 7 6 5 5 4 3 3 3 3 4 4 4 5 5 5 6 7 7 7 9 9 8 8 8 9 10 10 9 9 13 17 19 20 24 30 34 37 36 32 28 24 22 20 19 18 15 13 13 11 12 15 14 13 16 23 32 34 26 20 19 16 13 13 13 13 13 13 14 15 15
30 25 22 22 20 18 17 17 17 15 14 14 13 13 12 11 10 7 6 6 5 5 5 4 3 3 3 3 3 4 4 4 4 5 6 7 7 8 9 8 8 8 8 9 10 9 9 11 16 19 18 20 26 34 39 40 36 31 27 26 26 24 22 19 17 18 16 14 17 16 15 18 22 29 33 28 21 18 16 14 14 14 15 14 14 15 15 15
23 22 24 25 23 20 20 20 19 17 16 16 15 15 14 12 10 8 6 5 5 4 4 4 4 3 3 3 3 3 3 4 4 4 5 6 6 7 8 8 8 8 8 8 9 10 9 10 14 18 18 20 26 33 39 42 42 39 32 29 29 26 24 24 22 21 19 17 18 19 20 24 24 24 28 26 20 17 16 16 16 16 17 18 17 17 17 17
21 23 26 27 26 25 24 22 20 18 18 18 17 17 16 13 10 8 6 5 4 4 4 3 4 3 3 3 2 2 3 3 3 3 4 5 6 6 7 7 7 7 7 7 8 10 10 9 12 16 19 22 26 31 36 38 40 40 34 30 29 28 27 27 23 20 18 17 19 19 23 29 26 22 26 27 23 20 19 20 20 19 22 23 21 19 18 18
24 24 26 30 31 30 31 31 28 24 22 22 22 20 17 14 10 8 6 5 4 3 3 3 3 3 3 3 2 2 2 2 3 3 3 4 5 6 7 7 7 6 7 7 7 10 11 10 11 13 17 21 23 25 27 28 30 34 33 30 30 30 30 28 25 20 18 19 19 20 25 30 25 22 27 31 29 23 21 21 22 23 25 26 23 20 19 18
25 25 27 32 35 34 37 41 41 36 32 29 27 23 18 13 10 8 6 5 4 3 3 3 2 3 3 2 2 2 2 2 2 2 3 3 4 5 6 7 7 6 6 7 7 9 11 12 12 12 14 18 21 21 21 21 23 30 34 32 33 34 31 29 26 23 24 24 21 23 31 31 25 22 26 31 30 25 22 23 24 26 27 27 24 21 20 19
26 27 30 35 38 37 38 43 46 43 39 34 29 24 18 12 9 7 5 4 3 3 2 3 2 2 3 2 2 2 2 2 2 2 2 3 3 4 4 6 6 6 5 6 7 8 10 12 13 12 12 15 19 20 20 20 21 27 34 35 37 39 34 31 28 26 31 31 25 31 39 34 27 27 27 29 29 26 24 24 27 29 28 28 27 23 20 19
28 29 31 36 38 37 39 45 47 44 40 35 30 26 21 15 9 7 5 3 3 3 2 2 2 2 2 2 2 2 2 2 2 2 2 2 3 3 3 4 6 6 5 5 6 7 9 12 14 13 12 13 16 18 19 20 20 23 32 36 37 38 35 31 30 31 35 34 34 45 49 39 34 33 29 27 28 26 25 25 29 31 30 31 30 26 22 20
30 31 33 34 35 36 40 46 48 45 40 35 31 28 24 18 11 7 5 3 3 3 3 2 2 2 2 2 2 2 2 2 2 2 2 2 2 3 3 4 4 5 5 5 6 7 8 11 14 15 13 12 14 16 17 20 20 21 27 33 35 36 35 34 35 38 38 37 45 59 58 46 43 39 31 28 28 27 27 27 30 33 32 32 32 28 25 23
33 36 36 36 36 37 39 46 50 47 42 37 33 29 24 19 13 8 5 4 3 3 3 2 2 2 2 2 2 2 2 2 2 2 2 2 2 2 2 3 4 5 6 5 6 7 8 10 13 15 15 13 13 14 15 19 21 19 21 27 32 35 37 39 42 44 43 44 54 64 59 50 47 43 36 34 33 31 30 31 32 34 33 33 33 31 29 27
40 43 43 42 41 38 40 46 50 49 45 40 34 29 25 20 14 8 5 4 4 3 3 3 2 2 2 2 2 2 2 2 2 2 2 2 2 2 2 3 3 4 5 5 6 7 8 9 11 15 17 15 13 14 14 17 20 19 19 23 29 34 38 41 43 46 45 47 55 62 57 48 46 44 41 40 40 38 36 35 35 35 35 35 34 33 31 29
48 52 49 47 45 41 43 45 47 48 48 43 38 33 28 22 15 9 5 4 4 3 3 3 2 2 2 2 2 2 2 2 2 2 2 2 2 2 2 2 3 3 4 5 6 7 8 9 11 15 18 17 15 14 14 16 18 19 19 21 26 31 34 37 40 43 45 49 56 59 53 45 43 44 44 44 44 43 41 40 39 37 37 36 35 33 32 29
Wind_Speed
46 45 44 43 42 42 42 42 42 41 40 39 38 38 38 37 36 35 34 34 34 33 32 32 30 29 27 25 24 22 21 20 19 18 16 16 16 17 20 22 27 33 36 40 44 45 45 45 44 44 44 44 44 44 44 44 44 43 43 42 40 40 38 37 36 35 33 33 32 32 32 32 33 33 32 32 30 29 28 28 27 27 28 29 30 33 36 39
47 46 46 45 44 44 44 44 44 43 42 41 40 40 40 39 39 38 37 36 35 35 35 34 33 32 30 29 27 25 24 23 23 21 18 18 18 18 19 19 21 27 31 35 40 43 45 46 45 45 45 45 45 45 45 44 45 45 45 44 43 42 41 39 38 37 36 35 35 35 34 34 35 35 35 34 33 32 31 29 29 29 29 29 31 34 37 38
48 47 47 46 46 46 46 46 45 45 44 43 42 42 42 41 41 41 39 38 38 37 37 37 36 35 34 32 30 28 26 25 26 24 21 20 21 20 20 19 18 21 25 29 33 38 42 44 45 46 46 46 45 45 45 45 45 45 45 45 44 43 42 41 40 39 38 37 37 37 37 37 37 37 37 36 35 34 33 32 31 31 30 31 32 35 37 37
48 48 48 48 47 47 47 47 47 47 46 45 45 44 44 44 43 43 42 41 40 39 39 39 38 38 37 36 34 32 30 28 28 29 25 23 23 22 21 20 19 19 22 24 27 32 37 38 41 44 45 46 46 45 45 45 45 45 45 45 44 44 43 42 41 41 40 39 39 40 39 39 38 38 38 38 37 36 35 34 33 32 32 32 33 35 35 34
49 49 49 49 49 49 49 49 49 49 48 47 47 46 46 46 45 45 45 44 43 42 42 41 41 40 39 39 37 36 34 31 31 32 29 26 26 25 24 23 22 21 21 22 23 26 30 32 35 39 41 44 45 45 45 45 45 45 45 45 45 44 43 42 42 42 41 41 41 41 41 40 39 38 38 38 38 37 36 35 34 33 32 33 34 34 33 31
50 50 50 50 51 51 50 50 50 50 49 49 49 48 48 48 47 47 47 47 46 45 44 44 43 42 42 41 40 39 37 35 35 34 32 30 29 29 27 25 25 24 23 23 23 24 26 27 29 32 35 38 41 43 44 45 45 45 46 46 45 45 44 44 44 44 43 43 43 42 41 40 39 38 38 38 38 37 36 34 34 32 32 33 33 32 28 28
51 51 51 52 52 52 52 52 51 51 51 51 51 51 51 50 50 50 50 50 49 48 47 47 46 45 44 44 43 42 41 40 38 36 35 34 33 32 31 28 27 26 25 24 25 25 25 24 25 26 28 32 33 36 39 41 42 43 44 45 45 45 45 45 45 44 44 43 42 41 39 38 37 37 37 37 37 35 34 33 32 31 31 32 30 26 25 26
53 53 53 54 54 54 54 54 54 53 53 53 53 53 53 52 52 52 52 52 52 51 50 50 49 48 47 46 46 45 44 43 41 39 39 37 35 35 35 32 29 28 27 26 26 27 26 25 23 22 23 23 23 27 31 34 36 37 38 39 41 42 42 42 42 41 41 40 39 38 37 36 35 35 36 36 35 33 32 30 30 30 29 27 23 22 22 24
56 56 56 56 57 57 57 57 56 57 56 56 56 56 56 56 55 55 55 55 54 54 53 53 52 52 50 49 48 48 46 45 44 43 42 41 38 37 37 36 33 31 30 29 28 29 29 25 21 20 20 17 16 21 25 27 28 29 31 33 35 36 37 37 37 37 37 37 36 36 35 35 34 34 34 33 31 30 29 28 27 27 24 20 19 20 21 22
58 58 59 59 60 60 60 60 59 60 60 59 59 59 59 59 59 59 58 58 57 57 56 56 55 55 54 53 52 50 48 48 47 46 46 44 42 39 39 39 38 34 32 31 31 31 31 27 23 22 21 19 19 21 22 21 20 21 23 25 27 30 31 32 33 34 34 34 34 34 34 34 33 32 31 29 28 27 26 25 24 21 17 16 17 19 20 21
57 58 59 60 60 61 61 62 62 62 62 62 62 62 63 63 62 62 61 61 60 60 59 59 59 58 57 57 55 52 51 51 51 50 48 47 44 42 41 42 41 38 36 35 34 33 32 30 27 26 26 24 22 22 21 15 15 18 18 18 20 22 24 26 27 28 28 29 30 31 32 31 30 28 27 25 24 23 22 21 18 15 13 15 17 18 19 20
56 57 58 59 60 61 61 61 62 62 63 63 63 63 65 65 65 65 64 64 63 62 62 62 62 61 61 61 58 55 54 54 54 52 50 50 48 46 44 44 44 42 40 39 37 35 33 33 31 29 29 27 24 24 22 15 15 18 17 16 17 17 18 19 20 20 20 22 24 26 26 25 24 24 23 21 20 19 18 15 12 12 13 15 16 17 18 19
59 59 60 61 61 62 62 62 62 62 63 63 62 63 64 65 65 66 66 65 64 64 65 65 65 65 65 64 61 59 58 57 55 54 53 53 52 49 48 47 46 45 44 43 40 37 36 35 35 33 31 30 27 27 26 19 17 19 19 18 18 18 17 17 17 16 15 16 18 18 19 19 20 20 18 16 15 14 13 11 10 12 14 15 16 17 17 18
64 64 64 65 65 65 65 65 65 65 65 64 64 64 65 65 65 66 66 65 64 65 66 66 67 67 67 66 63 62 61 60 57 56 57 56 55 53 51 51 50 49 47 45 43 41 39 38 38 36 33 33 32 30 29 23 19 21 21 20 20 20 18 17 17 15 14 14 14 13 14 16 16 15 14 13 12 11 11 10 12 14 15 16 16 16 16 16
67 67 68 68 69 70 70 70 70 70 69 68 68 68 68 68 67 68 67 66 65 65 66 66 68 69 69 68 65 63 63 62 60 60 60 59 59 57 54 53 53 51 50 48 46 44 43 41 40 39 38 36 34 32 32 28 24 24 24 23 24 23 19 18 19 17 15 14 13 12 13 13 12 13 13 11 11 11 11 12 14 15 15 15 15 14 14 15
67 68 69 70 71 72 72 73 74 74 74 74 73 72 72 72 72 72 70 67 66 67 67 67 68 70 70 69 67 65 64 64 64 64 64 63 62 60 57 56 56 55 53 51 49 47 45 44 44 43 41 37 35 34 35 33 29 27 28 29 28 26 21 20 21 19 17 16 14 13 13 11 11 12 12 11 11 12 13 15 16 16 15 14 14 13 13 13
67 68 69 69 70 72 72 73 74 75 76 77 77 77 77 77 77 77 75 71 70 70 69 69 70 71 70 70 69 66 66 67 67 67 68 67 65 63 61 59 59 58 56 53 51 48 47 47 47 45 43 40 39 38 37 37 35 33 34 34 32 29 24 22 23 20 20 20 15 13 13 10 10 11 11 12 13 14 15 17 17 16 14 13 13 12 12 12
67 68 69 69 70 71 72 73 74 75 76 77 77 78 79 80 81 82 79 75 75 74 73 73 73 73 72 71 70 69 68 68 70 71 70 69 68 66 64 62 61 59 57 55 52 51 50 49 50 48 44 42 41 40 40 42 43 40 38 38 34 30 26 26 25 22 23 22 17 15 14 12 12 12 11 13 14 15 17 18 17 14 13 13 12 10 11 11
62 64 65 66 67 69 70 72 73 74 76 77 77 78 79 80 82 84 82 78 78 79 78 78 77 76 75 74 73 71 71 71 72 73 72 71 71 69 67 65 62 60 58 56 55 55 54 53 52 48 45 45 46 47 47 48 48 43 40 39 35 31 28 28 27 24 23 23 20 18 16 14 14 13 13 15 16 17 18 17 16 13 12 13 11 9 9 10
61 62 63 63 64 65 67 68 69 71 72 74 76 77 79 81 82 85 83 79 80 82 82 82 82 81 79 78 77 75 75 74 74 74 73 74 74 72 70 67 64 62 59 58 59 58 57 55 51 50 51 53 54 52 51 50 49 45 42 41 38 35 31 30 29 26 24 25 24 21 19 17 16 16 16 18 18 19 18 15 14 13 11 12 11 8 8 9
65 66 66 66 65 66 67 68 68 69 70 71 73 74 76 79 81 84 85 82 80 83 84 84 84 84 84 83 82 80 79 78 77 75 75 76 76 75 72 69 65 63 62 62 62 61 58 53 52 55 58 58 56 53 51 51 50 48 45 44 42 40 37 34 32 30 27 28 29 25 21 21 20 18 18 19 20 19 16 14 14 13 11 11 10 8 7 7
70 70 72 72 71 71 72 72 72 72 73 73 74 74 75 76 79 81 84 84 83 83 85 85 85 85 86 87 86 85 84 82 81 78 76 77 78 77 74 71 68 66 66 65 63 62 56 53 58 63 62 60 58 55 54 54 53 49 47 47 46 45 43 39 36 34 31 31 33 28 24 25 24 20 20 21 20 18 16 15 15 13 12 11 9 8 7 6
74 74 75 76 76 76 77 77 78 78 78 78 78 78 78 78 79 80 81 84 84 84 85 86 87 87 87 88 89 89 89 87 86 82 80 79 79 79 76 73 71 69 69 66 64 62 57 58 66 67 63 62 61 58 57 57 55 51 50 49 49 50 48 45 41 38 35 35 36 31 27 29 27 22 22 23 21 19 18 17 17 15 12 11 9 8 8 7
76 76 77 78 79 79 80 81 82 82 83 83 83 83 83 83 83 83 82 83 84 85 85 86 87 88 88 89 90 91 92 92 91 87 85 83 81 81 78 75 74 72 70 68 67 64 61 66 71 66 63 65 63 61 60 58 56 54 53 52 54 55 53 51 46 41 38 39 39 34 30 32 30 25 25 25 22 20 20 20 19 15 13 12 10 9 9 8
77 77 77 79 80 80 81 82 83 84 85 86 86 87 87 88 88 88 87 86 87 86 86 87 86 87 89 90 92 93 94 95 95 92 89 87 85 83 81 79 77 74 73 72 71 68 66 71 71 65 65 67 65 63 60 59 59 57 55 56 58 59 57 54 49 44 41 41 42 38 33 33 32 30 30 27 23 22 22 22 20 16 14 13 11 10 11 10
77 78 78 79 81 81 81 82 83 84 85 86 87 87 88 90 91 91 90 90 91 90 89 89 87 87 88 89 92 95 96 96 97 96 94 92 90 87 85 82 79 78 78 77 75 71 70 74 73 67 68 69 67 64 61 61 61 59 59 61 62 61 59 57 52 47 44 44 45 41 36 35 34 33 33 28 23 23 23 23 21 17 16 15 13 12 12 12
76 78 79 80 81 82 82 83 84 84 85 85 85 86 87 88 90 91 92 91 92 94 94 92 91 90 88 89 92 95 98 99 99 98 97 96 94 91 88 86 83 82 82 81 77 72 72 76 73 69 69 70 67 64 63 63 61 62 64 63 62 63 61 59 55 50 47 47 47 42 37 36 35 35 36 30 26 24 23 24 22 19 19 17 15 15 14 14
76 78 79 80 81 81 82 84 85 85 86 85 84 84 84 85 86 88 90 90 91 94 95 95 94 94 92 92 93 94 97 100 101 101 99 97 98 96 92 90 88 86 86 84 77 73 75 77 75 72 73 71 68 67 69 67 65 68 67 63 63 65 63 61 58 52 50 49 47 42 39 38 37 38 39 34 29 27 26 27 26 23 22 20 18 17 16 15
77 79 80 80 80 81 82 84 85 86 85 85 84 84 83 83 84 85 87 88 89 91 94 95 95 96 96 97 97 97 97 99 101 103 101 99 99 99 97 95 93 92 90 87 81 78 79 80 79 77 75 72 72 73 73 70 68 71 69 65 66 67 64 63 58 54 51 48 46 44 42 40 39 40 39 37 33 31 31 31 30 27 25 23 21 19 17 17
76 77 78 78 78 80 81 82 83 83 84 84 84 84 84 84 84 85 86 86 87 88 91 95 97 97 98 99 100 100 100 100 101 103 104 102 101 101 102 100 99 96 94 91 85 82 83 84 83 79 75 75 77 77 76 72 72 74 71 68 68 67 66 63 59 56 51 45 45 47 44 42 42 40 39 40 39 36 34 33 31 28 26 25 23 21 20 19
73 74 74 75 76 78 79 79 79 80 80 81 82 82 83 84 84 85 85 86 87 87 89 93 96 97 98 100 101 101 102 103 104 103 104 105 104 104 105 104 103 100 98 95 90 86 87 86 83 79 77 79 80 79 77 74 75 75 72 69 68 67 66 63 59 55 47 42 46 49 46 43 43 41 41 43 44 40 36 35 33 31 29 27 25 24 22 21
70 71 72 73 74 75 75 75 75 76 76 77 78 79 80 81 82 83 84 86 85 85 86 89 92 94 96 98 100 101 102 104 107 106 104 105 107 108 108 107 105 102 101 98 94 91 90 87 84 82 81 81 81 80 78 76 75 75 72 70 68 67 65 61 57 52 44 41 46 49 46 42 42 44 44 45 45 42 40 39 36 34 32 29 27 26 24 22
67 69 71 71 72 72 70 69 70 71 72 73 73 75 76 77 78 79 80 82 82 81 82 84 86 90 92 94 96 99 100 103 106 108 107 106 107 110 111 110 107 104 102 101 99 96 93 90 88 86 83 82 81 79 77 75 74 74 72 70 67 65 64 59 56 52 46 44 48 50 47 41 41 46 46 46 46 45 44 42 39 37 34 31 29 27 25 23
64 67 68 69 69 67 65 65 66 68 69 70 70 71 73 73 74 75 75 77 78 77 77 78 81 85 87 89 92 95 97 99 103 108 109 107 107 110 112 112 110 106 104 104 103 100 98 94 90 87 84 83 82 80 79 78 77 76 74 72 69 66 63 60 58 55 50 49 50 51 47 40 42 49 50 49 49 47 46 44 41 38 35 33 30 27 25 24
60 62 65 65 65 64 63 63 64 66 67 68 68 68 69 69 69 70 70 71 71 72 72 73 76 79 83 85 88 91 94 95 99 105 109 109 108 109 112 114 113 110 107 106 106 104 102 96 91 89 88 86 85 83 82 83 81 78 77 75 70 65 64 64 63 59 55 55 54 50 45 41 46 54 54 51 50 47 47 44 40 38 36 34 30 28 27 26
57 58 60 61 62 62 62 63 63 64 64 64 63 64 64 65 65 65 65 65 65 67 68 69 70 74 78 82 84 87 91 93 96 101 106 109 109 109 111 114 114 114 110 108 107 106 103 98 94 93 91 88 86 85 85 84 81 79 78 73 67 66 69 69 66 63 60 57 54 51 48 46 51 56 54 51 50 48 47 44 41 39 38 35 32 30 30 29
55 56 58 59 60 62 63 62 61 60 61 60 59 59 59 60 60 61 60 60 60 62 64 65 66 69 73 78 81 84 88 91 94 98 102 107 109 109 110 113 114 115 113 110 108 107 104 100 98 97 94 91 90 89 89 87 84 83 79 72 70 73 74 70 67 65 60 55 53 52 50 49 53 57 54 51 51 50 47 44 42 42 39 36 34 33 32 30
54 56 58 59 60 61 61 60 58 57 57 57 55 55 55 55 56 57 57 57 57 58 59 60 62 64 68 73 78 81 85 89 93 96 99 104 108 109 109 111 113 115 115 113 110 107 104 101 102 101 97 95 94 93 92 90 87 84 79 76 77 78 73 68 66 62 57 54 54 53 51 49 51 54 54 51 51 51 49 46 44 43 40 38 37 36 33 31
55 57 60 60 59 58 57 55 55 54 53 52 52 51 51 52 53 54 54 54 54 55 56 56 58 60 63 68 74 78 82 87 91 94 98 101 106 109 109 110 112 114 115 115 112 108 104 103 104 104 102 99 98 97 94 90 87 84 81 81 81 78 73 69 67 63 59 57 55 54 52 49 49 53 54 51 52 52 49 47 45 44 42 41 40 37 35 33
56 59 60 59 56 54 53 51 51 50 49 48 47 48 48 49 50 50 50 51 52 53 54 54 54 56 60 64 69 74 79 85 89 93 97 100 103 107 109 109 111 114 115 115 114 110 106 104 106 107 105 102 101 99 94 90 88 86 84 82 80 76 73 72 69 66 64 60 57 57 55 50 50 56 56 53 53 52 50 48 46 45 44 43 41 39 37 36
56 57 58 57 54 52 50 49 48 47 46 45 45 45 46 47 47 47 46 47 49 50 52 53 52 52 56 61 65 70 76 82 86 90 95 99 102 105 108 109 110 112 114 115 115 112 108 106 107 108 107 104 103 99 96 94 93 90 87 83 80 78 76 75 70 66 63 59 58 58 56 52 54 59 58 56 55 53 51 50 48 46 46 44 42 41 39 38
53 52 53 54 53 51 48 46 46 45 44 44 44 44 44 45 46 45 44 43 45 47 49 51 51 51 52 57 62 67 73 78 83 88 92 97 100 104 107 109 109 110 113 114 115 113 110 108 108 109 107 104 104 101 99 97 96 94 90 86 84 82 80 76 69 65 63 60 59 58 54 54 59 62 62 59 57 55 53 51 49 47 46 45 43 42 40 39
50 48 49 51 51 49 46 45 44 44 43 43 43 43 43 43 43 43 42 41 42 44 45 47 49 50 50 53 59 64 70 75 80 84 89 94 98 102 106 108 109 109 111 113 114 114 112 109 109 110 107 105 106 105 104 102 99 97 93 89 88 84 81 75 70 68 67 64 62 58 55 58 63 64 64 62 58 55 52 51 49 47 46 45 44 43 41 40
48 46 45 46 47 46 45 45 45 44 42 42 42 42 42 42 42 42 41 40 40 41 42 43 46 49 49 51 56 61 66 72 76 79 85 91 96 100 104 107 108 109 110 111 112 114 113 111 110 111 110 109 110 110 109 106 102 99 95 92 90 86 82 78 75 74 71 66 64 59 58 63 64 62 63 61 57 54 52 50 49 47 46 46 46 45 43 41
47 44 42 41 42 42 42 44 46 46 44 44 43 43 42 41 41 42 41 40 40 40 40 40 41 45 48 49 53 57 62 68 72 76 80 87 92 97 101 105 107 108 108 110 110 112 114 112 111 113 113 112 112 112 111 108 105 101 98 95 92 89 86 82 79 77 71 66 64 60 62 67 64 61 62 60 56 54 52 51 50 49 49 48 48 47 45 44
45 43 40 38 38 38 38 40 43 45 45 45 44 43 42 41 40 40 40 39 39 39 38 37 37 41 45 48 50 55 59 65 70 73 77 82 88 94 98 102 106 106 107 108 109 110 113 113 112 114 114 113 112 112 109 107 105 102 100 97 94 92 88 85 82 75 69 67 64 61 65 70 66 64 64 61 58 55 52 51 51 50 51 50 50 49 48 46
42 40 36 35 36 36 35 36 39 41 43 43 43 43 42 41 40 39 38 37 37 38 37 35 34 37 42 45 48 52 56 62 67 71 74 78 83 89 95 99 103 104 105 106 107 108 111 114 114 114 114 113 113 112 109 107 105 103 101 98 96 93 90 86 81 74 71 69 64 63 70 71 67 66 66 64 61 58 55 53 52 52 52 51 51 51 50 48
40 37 33 31 32 34 34 35 37 40 41 41 42 42 42 41 41 40 38 36 34 35 34 33 32 34 38 42 46 49 53 58 63 67 70 73 78 84 90 95 99 102 103 104 105 106 109 112 114 114 113 113 114 113 110 107 105 104 103 100 97 93 90 86 80 76 74 70 65 68 74 72 69 70 69 67 64 60 57 56 54 54 53 52 53 52 51 50
38 36 33 30 29 31 31 33 35 38 40 40 40 40 41 41 40 39 38 36 34 31 31 30 29 31 34 38 42 46 50 54 59 64 67 70 74 79 85 91 95 99 100 101 102 104 106 109 112 114 113 113 113 114 112 108 107 105 104 101 98 94 90 86 82 80 77 72 71 75 77 74 73 73 70 68 65 61 59 57 56 56 55 54 54 54 52 50
37 35 33 31 31 31 31 32 33 36 38 39 39 39 39 40 40 38 36 36 34 30 28 28 28 28 31 35 39 43 46 49 55 60 63 66 69 74 80 85 90 94 97 98 99 101 104 107 110 112 114 113 113 114 112 109 108 106 104 101 99 95 92 89 87 84 80 77 78 79 78 77 76 72 69 67 64 62 61 59 58 58 56 55 54 54 53 50
35 34 33 33 32 32 32 32 33 35 37 39 39 39 39 40 40 38 34 32 32 30 26 25 25 25 28 32 35 39 43 46 51 56 60 63 66 70 75 80 84 89 93 95 97 98 101 104 107 110 114 115 114 113 112 110 110 108 104 102 100 97 95 93 90 86 82 81 82 81 80 79 76 71 68 66 63 63 62 60 59 58 57 56 55 55 54 51
33 32 32 33 33 33 34 34 33 33 36 38 39 40 40 40 39 38 34 30 29 28 24 22 23 23 25 29 32 36 40 43 47 52 56 60 63 66 71 74 78 83 89 92 94 96 99 102 105 109 114 116 115 112 111 111 112 110 105 102 100 98 97 94 90 87 84 84 85 84 81 80 76 71 69 66 64 63 62 60 59 58 57 56 56 55 54 52
Wind_Direction
254 255 255 255 254 254 255 256 257 256 255 256 258 259 260 261 261 262 262 262 263 264 263 262 260 256 252 250 249 250 249 246 241 239 242 244 242 241 236 231 232 232 231 234 234 234 234 234 234 234 235 236 237 238 239 241 243 245 246 248 249 251 252 254 256 257 259 261 263 264 265 266 269 271 274 276 278 279 282 286 289 293 297 296 296 300 303 306
255 255 255 255 255 255 255 256 257 257 256 255 256 258 259 260 260 261 261 262 262 263 263 262 262 259 255 252 249 248 249 251 247 238 237 244 244 243 241 235 236 234 230 232 234 235 235 235 235 236 236 237 237 238 240 241 242 244 246 248 249 251 253 254 256 257 259 261 263 265 266 267 268 269 271 274 277 279 282 285 288 292 295 296 297 300 302 306
256 256 256 256 256 256 256 257 257 257 256 255 255 256 258 259 260 260 261 261 261 262 262 262 261 261 258 255 251 248 247 249 252 245 235 239 244 244 244 240 240 241 234 232 234 235 235 236 237 237 237 238 238 239 240 242 243 244 246 248 249 251 253 254 256 258 259 260 262 264 265 267 268 269 270 272 275 278 282 285 287 290 294 296 298 300 303 308
257 257 257 257 257 257 258 258 258 258 258 256 256 256 257 258 259 260 260 260 261 261 262 261 261 260 260 258 254 250 247 247 251 250 241 238 242 244 245 243 242 246 244 236 235 236 235 235 237 238 239 239 239 240 241 243 244 245 247 248 249 250 252 253 254 256 258 259 261 264 265 267 268 268 269 271 274 276 279 282 285 288 292 296 297 300 305 310
259 259 258 259 258 258 259 259 259 260 259 257 257 256 257 257 258 259 260 260 260 260 261 261 260 260 259 258 257 253 249 247 249 249 245 242 244 243 243 245 243 244 247 244 239 240 237 233 235 238 238 240 240 241 242 243 245 246 247 248 249 250 252 253 254 255 256 258 260 262 264 266 266 266 266 268 271 274 276 280 283 286 291 293 296 301 307 311
260 260 260 260 260 259 259 259 259 259 259 258 257 257 257 257 258 259 259 260 259 259 260 260 260 260 259 257 257 255 252 250 248 247 247 246 247 245 239 241 244 243 244 247 246 245 240 234 234 236 237 239 241 241 242 243 244 246 247 249 250 251 253 254 256 257 258 259 260 262 263 264 264 265 265 267 269 272 275 278 281 285 289 291 295 302 308 310
261 261 261 260 260 260 260 260 259 259 258 258 258 258 258 257 258 259 259 259 259 259 259 259 259 259 259 258 256 255 254 253 248 246 248 246 245 247 242 237 241 244 243 246 249 249 245 238 234 234 236 238 240 241 242 243 244 245 247 250 251 252 253 255 257 258 260 261 262 262 262 263 263 264 265 266 269 272 275 278 281 284 286 290 297 304 308 309
261 261 261 261 261 260 260 259 259 259 258 258 258 258 258 258 258 258 258 258 258 258 258 258 258 258 258 257 257 255 254 254 251 247 248 245 243 247 247 240 237 242 244 244 247 249 249 242 236 235 236 236 240 242 240 241 242 243 246 248 250 251 252 253 254 256 257 258 259 259 260 260 261 262 263 266 269 272 274 277 279 282 285 291 298 303 306 308
262 261 261 261 261 260 260 259 259 258 258 258 257 257 257 257 257 257 257 256 257 257 258 258 258 258 257 256 256 255 254 254 252 250 249 246 242 244 248 245 239 238 242 244 246 248 248 245 241 242 241 237 241 242 237 237 239 241 243 245 247 249 249 250 251 252 253 254 255 256 256 257 258 259 262 266 268 271 273 275 277 280 285 291 296 300 304 306
262 262 262 261 261 261 260 260 259 258 258 257 257 257 257 256 256 256 255 255 255 256 256 256 257 257 256 255 254 253 254 254 253 251 250 248 244 242 245 247 243 238 239 242 245 245 247 247 248 248 245 237 237 240 235 232 236 237 239 242 244 246 248 249 249 250 251 252 253 254 254 255 256 258 261 264 266 267 269 271 274 279 284 288 293 298 302 304
264 263 263 263 262 262 261 260 260 259 259 258 257 257 257 256 255 255 254 253 253 254 254 255 255 255 255 254 253 252 252 253 252 250 249 249 247 243 243 246 245 241 240 240 242 243 245 248 248 248 246 240 236 241 238 228 233 236 234 238 240 242 244 246 247 248 249 251 252 253 253 254 255 256 257 259 261 263 264 266 271 276 280 284 290 295 300 302
265 264 264 264 263 263 262 262 261 260 260 259 258 258 257 257 256 255 254 253 252 252 253 253 254 254 254 253 252 252 251 250 250 249 249 250 249 245 243 245 245 243 241 240 240 241 244 246 246 245 246 246 241 243 241 227 231 239 235 235 236 237 239 241 243 244 245 246 247 249 251 252 251 251 251 253 255 257 259 262 265 270 274 281 287 294 299 302
265 265 265 264 264 264 263 263 262 261 261 260 259 259 258 257 256 256 255 254 253 252 252 252 252 253 253 251 251 251 250 248 248 249 249 249 248 245 244 244 244 242 240 239 239 239 241 244 245 243 244 247 245 243 241 229 225 238 238 236 236 235 235 238 239 239 240 241 243 246 247 246 244 244 245 244 246 249 252 253 256 264 271 278 286 292 298 303
266 265 265 265 264 264 264 263 262 262 261 260 260 259 258 258 257 256 255 254 253 252 252 252 251 252 252 251 250 249 249 248 248 248 248 247 245 244 242 243 243 241 239 238 239 239 239 241 243 243 242 243 244 243 243 235 223 233 238 236 238 237 234 238 240 239 239 241 243 241 240 241 240 240 237 231 229 232 239 243 251 261 269 277 285 292 298 305
266 266 265 265 264 264 264 263 263 262 261 260 260 259 259 258 257 256 255 254 254 253 252 251 251 251 251 250 249 248 248 248 248 248 247 245 244 242 240 241 242 241 240 238 237 238 239 239 240 242 240 240 243 245 247 242 229 229 234 233 237 238 234 237 242 240 240 241 242 237 235 237 234 232 226 215 212 216 228 241 251 261 268 276 285 293 301 307
267 266 266 265 265 264 264 263 263 262 262 261 260 259 258 258 257 256 255 254 254 253 253 252 251 251 250 249 248 247 247 248 248 247 246 244 243 241 238 239 240 240 239 237 235 236 239 239 239 239 239 239 240 243 246 246 238 231 234 233 234 236 230 233 241 241 240 237 236 236 234 231 225 224 216 202 206 213 227 242 251 260 269 277 285 295 305 310
268 267 266 265 265 264 264 263 263 262 262 261 260 259 258 258 257 256 254 253 253 253 252 252 251 251 250 250 248 246 246 246 247 246 245 244 242 240 238 236 237 237 237 237 236 236 237 240 240 239 239 238 238 239 242 244 240 232 232 232 231 231 228 228 235 237 241 240 233 233 234 227 217 217 211 203 210 219 229 242 252 261 270 277 285 297 307 311
268 267 267 266 265 265 264 264 263 263 262 261 261 259 259 258 257 256 254 253 252 252 251 251 251 251 250 250 249 247 245 244 244 245 244 243 242 239 237 235 235 235 235 236 237 236 236 237 238 238 238 239 239 238 235 236 238 234 232 233 231 229 228 230 233 233 239 244 236 231 232 224 219 217 215 214 218 226 234 244 254 261 268 277 285 297 307 314
268 268 267 266 265 265 265 264 264 263 263 262 261 260 259 258 258 257 254 252 252 251 250 250 250 250 250 249 248 247 246 244 243 243 243 243 242 240 237 234 233 234 234 235 236 236 235 235 236 238 240 239 236 233 231 235 240 238 236 238 236 232 229 232 237 234 238 244 238 232 231 225 223 221 221 225 228 233 239 245 255 260 266 275 284 295 307 314
268 267 266 265 264 264 263 263 262 262 262 262 261 260 260 259 258 257 255 253 252 251 250 249 249 248 248 248 248 247 246 245 243 242 242 243 243 241 238 235 233 233 234 235 235 234 233 233 235 238 239 236 234 233 234 237 240 241 240 241 240 236 230 229 234 234 234 240 239 234 230 225 222 220 222 229 234 236 241 247 253 257 261 270 279 290 302 311
269 268 266 265 263 262 262 261 260 260 259 259 259 259 259 259 258 258 257 253 251 252 251 249 248 247 247 247 247 246 245 245 244 242 241 242 243 242 240 236 233 233 235 235 233 232 232 233 237 238 237 235 234 234 235 237 239 240 241 241 241 239 233 228 229 231 229 234 239 234 228 226 222 219 221 228 234 238 241 244 247 250 255 263 273 283 296 305
270 269 269 267 265 263 262 261 260 259 258 258 258 257 257 257 257 258 258 255 252 251 251 250 248 247 246 246 246 245 245 244 243 242 241 242 242 242 240 238 235 233 234 233 232 233 232 234 239 238 234 234 233 233 233 235 236 237 239 240 241 240 236 230 226 227 226 230 237 234 229 231 227 219 221 228 235 239 239 239 242 244 248 256 264 275 285 293
273 272 271 270 268 266 265 263 262 260 259 258 257 257 256 255 255 255 256 256 254 251 250 250 248 247 246 245 245 245 244 243 243 241 240 240 241 242 241 239 237 235 233 232 232 233 232 235 239 236 233 233 232 232 232 233 234 234 235 237 238 239 238 233 227 225 226 230 236 234 230 235 234 222 222 227 231 233 235 237 240 240 244 250 255 265 273 277
275 274 273 272 271 269 268 266 264 262 261 260 258 257 256 255 254 254 254 254 255 253 251 250 248 248 246 245 244 244 243 243 242 241 239 239 240 240 240 239 238 236 234 232 231 231 231 236 238 235 233 234 233 232 231 232 233 233 234 234 235 237 237 235 229 225 226 231 236 234 231 236 238 229 226 227 226 229 233 237 240 241 244 249 251 258 265 268
276 276 275 274 274 272 271 269 268 265 263 262 260 258 257 256 254 254 253 252 253 253 252 251 249 247 246 245 244 244 243 242 242 240 239 238 238 238 239 238 237 236 234 232 230 229 231 236 238 234 233 234 233 232 232 232 232 232 233 233 234 235 236 236 232 226 226 231 236 236 232 236 239 237 234 232 229 231 235 240 243 244 244 248 248 251 259 263
277 276 276 276 275 274 273 272 271 269 266 264 261 259 258 257 255 254 253 252 252 252 251 251 251 249 247 246 245 244 243 242 241 240 239 238 237 236 237 237 236 235 234 232 229 227 229 235 236 233 232 233 233 232 233 233 233 233 233 232 233 235 236 236 234 229 227 230 234 235 234 236 240 242 242 239 235 237 240 244 246 244 244 245 245 246 253 259
278 278 277 276 276 276 275 275 273 271 269 267 264 262 260 258 257 256 254 253 253 252 251 250 250 250 249 247 245 244 242 242 241 240 238 238 237 235 235 236 235 234 234 232 229 226 229 233 234 232 232 233 233 233 233 232 232 233 233 232 233 235 235 236 235 232 229 230 233 235 235 238 240 243 245 241 236 238 241 244 245 243 243 243 242 244 249 256
279 279 278 277 277 277 276 275 274 272 271 270 268 265 263 261 259 257 256 254 253 253 252 250 249 248 248 248 247 245 243 241 241 240 239 237 237 236 234 233 234 234 234 233 229 227 229 231 232 231 231 231 232 233 232 230 230 232 232 231 232 234 234 235 234 232 231 231 234 235 235 238 239 242 246 245 238 233 233 238 241 240 242 243 243 246 250 256
281 280 279 279 278 277 276 275 274 273 273 272 270 269 266 264 261 259 257 255 253 252 252 252 249 247 246 246 246 246 244 242 240 240 239 237 236 236 234 232 232 232 233 232 229 227 228 229 229 228 228 229 230 231 231 229 230 232 231 229 231 232 233 234 234 232 232 233 235 236 235 236 237 240 246 248 241 232 231 238 241 241 244 246 247 249 252 255
282 281 280 279 279 277 276 275 274 274 274 273 272 270 268 266 264 261 259 256 254 252 251 251 250 248 246 245 244 244 244 243 240 239 238 237 235 235 234 232 231 230 231 231 229 227 228 228 228 227 226 227 229 230 229 228 230 232 231 230 230 231 232 233 233 232 231 231 235 236 234 233 235 238 242 243 241 236 237 241 243 243 245 247 249 250 252 254
283 282 281 280 279 277 276 276 275 275 274 273 272 271 269 267 265 263 261 259 256 254 252 251 250 248 246 245 243 242 241 241 240 238 236 235 235 234 234 232 231 229 229 230 229 228 228 228 228 227 226 227 228 229 229 228 230 232 232 231 232 232 233 233 233 233 232 230 232 235 233 232 236 237 235 238 241 240 240 241 241 242 244 246 248 250 252 255
285 284 282 280 279 278 278 279 278 277 275 274 273 271 270 268 266 265 263 261 258 255 253 251 250 249 246 245 243 241 239 238 239 238 236 234 233 233 234 232 231 229 229 229 228 227 228 228 228 227 226 227 228 229 229 229 231 233 233 233 233 234 234 234 235 235 231 228 230 233 234 233 235 235 234 238 241 240 240 239 240 241 242 245 247 249 251 254
287 285 283 282 281 281 281 282 281 279 278 276 275 273 271 270 268 266 264 262 260 257 254 252 250 248 246 244 243 241 238 236 236 236 235 233 231 231 233 233 231 229 228 228 227 227 227 227 227 227 226 227 228 229 230 231 232 233 234 234 234 235 235 235 235 234 230 228 230 231 231 230 232 235 235 237 238 238 239 239 240 241 242 243 246 248 251 253
288 287 286 285 285 285 285 285 283 282 280 279 277 276 274 272 270 268 265 263 261 258 255 252 250 248 246 243 242 241 238 235 234 234 234 233 231 229 230 232 231 229 227 227 227 226 226 226 226 227 227 227 227 228 228 229 230 230 231 232 232 233 234 233 232 231 227 227 228 228 228 226 231 236 234 234 237 238 240 240 240 241 242 243 244 247 250 251
289 289 289 289 289 290 289 288 286 285 283 282 280 278 276 274 272 269 267 265 263 260 256 252 249 247 246 243 241 240 239 235 233 232 232 232 231 229 228 229 230 230 227 226 226 225 225 225 225 226 227 227 226 226 226 227 228 228 229 230 229 230 232 230 229 228 225 225 226 226 224 222 228 234 233 234 238 239 241 242 241 242 242 242 243 243 244 245
291 291 291 292 292 292 291 290 288 287 285 284 282 281 279 277 274 271 268 265 262 259 256 252 248 245 244 243 240 238 238 236 233 231 230 231 230 229 228 227 228 229 228 225 225 225 225 223 223 224 225 226 226 226 227 227 227 228 229 229 229 230 231 229 227 227 225 225 227 225 221 218 225 233 233 234 237 238 240 242 241 241 241 241 241 240 240 241
295 295 294 294 295 295 294 292 291 290 288 286 284 283 281 279 276 273 270 266 262 258 256 253 248 244 242 241 239 237 236 235 234 231 229 229 229 229 228 227 227 228 228 226 224 224 224 223 223 223 223 224 226 226 227 226 225 227 227 226 227 228 229 228 227 227 225 226 228 226 222 221 227 234 236 235 237 238 239 239 239 240 240 239 239 239 239 240
300 300 298 298 298 298 296 296 295 293 291 289 287 284 282 280 277 275 272 269 265 260 256 252 249 245 241 239 238 236 234 233 233 231 229 228 228 228 227 227 226 226 227 227 225 223 223 222 222 222 222 222 224 225 226 226 225 226 225 224 225 227 227 228 228 228 227 227 228 228 223 223 229 235 237 236 237 238 237 237 238 238 238 237 237 237 238 240
304 303 302 301 300 298 298 297 296 293 291 289 287 285 282 280 278 276 274 271 268 264 259 253 248 245 241 238 236 235 233 231 230 230 229 228 227 228 227 226 226 225 225 226 226 223 221 221 222 222 221 221 223 224 225 226 226 226 225 225 226 226 226 226 225 225 224 224 226 227 224 222 227 234 236 235 236 237 237 236 237 238 237 237 237 237 237 238
307 306 304 302 301 300 299 298 295 293 291 290 288 286 284 282 279 277 274 272 269 266 262 257 250 245 242 239 236 234 232 231 229 228 228 227 226 226 226 225 225 225 225 225 225 223 220 219 221 222 221 220 222 223 224 225 225 226 226 226 227 227 227 226 225 224 222 221 222 224 223 220 224 231 233 233 234 236 237 236 236 237 238 237 238 237 237 237
309 308 305 304 303 302 301 299 297 295 294 293 292 290 289 286 283 280 276 273 269 265 262 259 253 247 242 239 236 234 232 231 229 227 226 226 225 225 226 225 224 224 224 223 223 223 220 218 219 222 221 220 221 222 223 224 224 224 224 225 226 226 226 226 225 225 224 222 223 225 222 220 224 230 232 232 233 234 236 237 236 237 238 238 238 238 237 238
311 310 308 307 306 305 304 302 300 299 298 298 297 295 293 291 288 284 279 274 269 264 260 258 255 249 243 239 236 234 232 231 228 227 225 225 224 224 224 225 224 223 224 223 222 222 220 217 218 220 221 220 221 221 221 222 223 224 223 222 223 224 224 225 223 224 224 223 224 225 224 222 224 228 230 230 231 232 234 237 237 237 239 239 239 239 239 240
313 312 310 308 307 307 306 305 303 302 302 302 301 300 298 295 293 289 284 278 271 265 260 256 255 251 245 239 236 233 232 231 229 226 225 224 224 223 223 224 224 223 223 222 221 220 220 217 216 219 220 219 220 220 220 220 221 223 222 222 222 222 223 223 221 222 222 220 220 222 223 225 225 228 231 232 232 233 234 236 238 238 240 241 241 241 241 241
315 314 312 310 309 309 309 308 306 306 306 306 306 305 303 301 298 295 290 284 276 269 262 256 253 251 247 240 236 233 232 232 230 227 225 224 223 223 222 223 223 223 222 222 221 219 219 217 215 217 218 218 218 219 219 219 219 221 222 221 222 222 222 221 220 220 219 218 218 218 221 225 226 228 233 234 233 233 233 235 237 238 239 240 240 241 240 241
316 315 314 311 310 310 312 312 311 311 312 312 311 310 308 305 302 298 294 288 281 274 266 259 253 250 248 242 237 233 231 231 230 227 225 224 223 222 221 221 222 222 221 221 220 218 218 216 215 215 216 217 218 219 219 219 219 220 221 221 222 221 221 220 220 220 219 218 218 217 222 227 226 227 231 234 233 233 233 234 235 236 237 238 239 240 240 240
316 316 316 313 311 311 312 313 313 314 315 315 314 313 310 307 304 300 296 291 285 278 271 264 257 250 247 243 238 233 230 230 230 228 225 223 223 222 221 221 221 222 221 220 219 217 216 216 215 215 216 216 218 220 220 220 220 219 220 220 221 221 221 220 220 219 218 219 218 218 223 227 226 226 230 231 232 231 231 233 234 236 237 239 240 241 241 241
318 318 318 316 313 312 312 313 313 314 316 316 316 316 314 311 307 303 299 294 288 281 274 268 261 252 246 242 238 234 231 228 229 228 226 224 223 222 221 221 221 221 220 220 219 217 215 215 214 215 215 215 217 219 219 219 219 219 220 220 220 221 221 221 220 218 218 219 218 220 226 227 226 227 228 229 230 230 229 230 232 235 237 239 241 242 242 243
319 318 318 317 314 313 315 315 316 317 318 319 320 321 320 317 313 309 304 298 291 284 278 270 261 253 247 242 239 235 231 228 228 228 227 224 223 222 222 221 220 220 220 219 218 216 215 214 213 214 215 215 216 218 218 218 218 219 219 219 220 220 221 221 220 218 218 217 217 221 226 227 226 227 227 229 230 230 229 230 231 233 235 238 240 242 243 244
320 319 320 319 317 317 317 318 319 321 322 324 326 327 326 322 318 314 309 303 296 288 281 274 264 254 248 243 239 236 232 229 227 227 227 225 223 222 222 221 220 220 220 218 217 216 214 213 212 212 214 215 215 216 217 217 217 218 218 218 219 220 220 220 219 218 217 216 217 221 225 225 226 227 228 229 230 231 231 231 232 234 235 237 240 243 244 245
322 321 322 324 324 323 323 323 324 325 326 328 330 331 330 327 322 317 314 309 301 292 284 277 267 256 249 243 238 236 233 229 227 226 226 225 223 222 222 221 220 219 219 218 217 215 213 212 211 211 213 215 215 216 216 216 217 217 217 217 217 218 218 218 218 218 216 215 217 221 223 224 225 227 228 230 231 233 233 233 234 236 237 239 242 244 245 246
323 323 325 327 327 327 328 328 328 329 331 332 333 334 334 332 327 321 316 312 305 296 288 280 270 259 250 244 239 235 233 229 226 225 225 224 223 221 221 221 219 218 218 217 216 214 212 211 210 210 212 214 214 214 215 215 216 217 216 216 216 216 217 217 217 217 216 216 219 221 222 223 224 225 227 229 230 232 234 234 235 237 238 240 241 243 245 245
324 324 326 329 329 331 333 332 331 333 335 337 338 339 338 336 332 325 320 316 307 298 292 284 275 264 253 246 240 236 233 229 226 223 223 223 222 220 221 221 219 217 217 217 215 213 211 211 209 208 211 213 214 214 214 214 215 216 215 215 215 215 216 216 216 216 217 217 220 221 222 223 223 224 225 227 229 231 233 234 235 237 238 240 241 243 245 245